Weather in Dzhalka

Russia / Chechen Republic     43°19′19″N   45°59′43″E
temp.,
°C
wind,
m/s
gust,
m/s
humid.,
%
clouds,
%
prec.,
mm/h
press.,
hPa
HPBL,
m
9 december, thu
thu900:00+7sw227911 0.0 101010
03:00+7sw228050 0.0 101120
06:00+7sw3373100 0.0 101154
09:00+10w61463100 0.1 1013638
12:00+12wnw51161100 0.0 1014902
15:00+13w4954100 0.0 1016634
18:00+11sw3568100 0.3 1018118
21:00+11wsw3667100 0.3 1019175
10 december, fri
fri1000:00+11wsw3667100 0.1 1021161
03:00+10w237191 0.1 102254
06:00+9w1284100 0.0 102476
09:00+9wnw2387100 0.1 1025175
12:00+8wsw3690100 0.6 1026395
15:00+9sw258883 3.1 1025272
18:00+8wsw118536 0.0 102613
21:00+7s11865 0.0 102610
11 december, sat
sat1100:00+6sse11850 0.0 102510
03:00+5ese11870 0.0 102510
06:00+4e11911 0.0 102510
09:00+5ne128924 0.0 1026131
12:00+8ne237529 0.0 1025466
15:00+9ne34696 0.0 1025537
18:00+6ne23786 0.0 102775
21:00+4ene2281100 0.0 102852
12 december, sun
sun1200:00+3ne12875 0.0 102943
03:00+2ene22936 0.0 102939
06:00+1nne129220 0.0 103044
09:00+2ene128743 0.0 1030186
12:00+6ene457564 0.0 1029567
15:00+7ene56688 0.0 1029678
18:00+4ene48845 0.0 1030276
21:00+3ene369219 0.0 1029226
13 december, mon
mon1300:00+2ene239338 0.0 1028103
03:00+2ese129367 0.0 1027106
06:00+2s129084 0.0 102790
09:00+4ssw118069 0.0 1026429
12:00+6ene12683 0.0 1025535
15:00+8ese12610 0.0 1023562
18:00+5s11775 0.0 102334
21:00+3sse01845 0.0 102230